User: anonymous   Login
Location: Nairn
(57.5833°N, 3.8667°W)
Time: 07:13:42
(UTC+00:00)
Language:

Cosmos 1627 Rocket - Orbit

View from above orbital plane
View from above orbital plane
View from above satellite
View from above satellite

Ground track
Ground track

The orbit data is extracted from the following two-line orbital elements,

1 15506U 85011B   20299.91570109 -.00000075 +00000-0 -92051-4 0  9991
2 15506 082.9157 108.1982 0035700 216.6130 320.4449 13.76209275793854
Epoch (UTC): 25 October 2020 21:58:36
Eccentricity: 0.0035700
inclination: 82.9157°
perigee height: 951 km
apogee height: 1003 km
right ascension of ascending node: 108.1982°
argument of perigee: 216.6130°
revolutions per day: 13.76209275
mean anomaly at epoch: 320.4449°
orbit number at epoch: 79385

The dashed part of the orbit path shows where the satellite is in the earth's shadow,  

DLR